#timestamp,LO_Frequency,Hit,StdDev 
1691132415.6,286046998.3,N
1691132435.4,286046999.4,N
1691132455.3,286046998.4,N
1691132475.1,286046998.7,N
1691132495.8,286046999.6,N
1691132515.7,286046999.3,N
1691132535.5,286046999.3,N
1691132555.3,286047001.2,N
1691132575.2,286047001.0,N
1691132595.9,286047000.2,N
1691132615.7,286046999.8,N
1691132635.6,286047000.5,N
1691132655.4,286047001.2,N
1691132675.2,286047000.4,N
1691132695.1,286047001.0,N
1691132696.0,286047001.0,N
1691132715.8,286047002.7,N
1691132735.6,286047002.5,N
1691132755.5,286047000.3,N
1691132775.3,286046999.8,N
1691132795.1,286047000.6,N
1691132815.9,286047002.8,N
1691132835.7,286047001.8,N
1691132855.5,286047000.8,N
1691132875.4,286047000.3,N
1691132895.2,286046998.1,N
1691132915.0,286047000.7,N
1691132915.9,286047000.7,N
1691132935.8,286047000.5,N
1691132955.6,286047000.6,N
1691132975.4,286046999.7,N
1691132995.3,286047000.8,N
1691133015.1,286046999.8,N
1691133035.8,286047000.1,N
1691133055.7,286046999.9,N
1691133075.5,286047002.5,N
1691133095.3,286047002.7,N
1691133115.2,286047001.9,N
1691133135.0,286047002.6,N
1691133135.9,286047002.6,N
1691133155.7,286047000.6,N
1691133175.6,286047002.5,N
1691133195.4,286047002.8,N
1691133215.2,286047000.5,N
1691133235.1,286047000.2,N
1691133236.0,286047000.2,N
1691133255.8,286047000.7,N
1691133275.6,286047000.5,N
1691133295.5,286046999.7,N
1691133315.3,286047002.8,N
1691133335.1,286046998.5,N
1691133355.9,286047000.8,N
1691133375.7,286047000.5,N
1691133395.5,286047001.0,N
1691133415.4,286046998.1,N
1691133435.2,286046998.4,N
1691133455.0,286047001.2,N
1691133455.9,286047001.2,N
1691133475.8,286046998.4,N
1691133495.6,286046999.9,N
1691133515.4,286047002.4,N
1691133535.3,286046999.8,N
1691133555.1,286047001.9,N
1691133575.9,286047001.6,N
1691133595.7,286047003.8,N
1691133615.5,286047004.2,N
1691133635.4,286047002.0,N
1691133655.2,286047000.4,N
1691133675.0,286047000.7,N
1691133675.9,286047000.7,N
1691133695.8,286046998.1,N
1691133715.6,286047001.2,N
1691133735.4,286046999.3,N
1691133755.3,286047001.1,N
1691133775.1,286047000.8,N
1691133776.0,286047000.8,N
1691133795.8,286047000.2,N
1691133815.7,286047000.8,N
1691133835.5,286046998.1,N
1691133855.3,286046998.2,N
1691133875.2,286047001.2,N
1691133895.9,286046998.9,N
1691133915.7,286046998.7,N
1691133935.6,286046999.2,N
1691133955.4,286046996.6,N
1691133975.2,286046999.6,N
1691133995.1,286046996.6,N
1691133996.0,286046996.6,N
1691134015.8,286047001.1,N
1691134035.6,286046998.4,N
1691134055.5,286047000.7,N
1691134075.3,286046998.8,N
1691134095.1,286046996.9,N
1691134115.9,286046996.6,N
1691134135.7,286046997.5,N
1691134155.5,286046997.7,N
1691134175.4,286046997.7,N
1691134195.2,286046997.0,N
1691134215.0,286046996.9,N
1691134215.9,286046996.9,N
1691134235.8,286046997.8,N
1691134255.6,286046997.7,N
1691134275.4,286046997.7,N
1691134295.3,286046995.5,N
1691134315.1,286046995.6,N
1691134335.8,286046995.8,N
1691134355.7,286046997.5,N
1691134375.5,286046996.8,N
1691134395.3,286046998.0,N
1691134415.2,286046996.8,N
1691134435.0,286046997.2,N
1691134435.9,286046997.2,N
1691134455.7,286046999.6,N
1691134475.6,286046997.1,N
1691134495.4,286046997.3,N
1691134515.2,286046999.2,N
1691134535.1,286046997.3,N
1691134536.0,286046997.3,N
1691134555.8,286046996.7,N
1691134575.6,286046996.8,N
1691134595.5,286046997.5,N
1691134615.3,286046997.0,Y
1691134635.1,286047001.1,P
1691134655.9,286046999.9,N
1691134675.7,286047000.2,N
1691134695.6,286047000.2,N
1691134715.4,286047000.3,N
1691134735.2,286047001.2,N
1691134755.1,286047001.5,N
1691134756.0,286047001.5,N
1691134775.8,286047000.5,N
1691134795.6,286046998.4,N
1691134815.5,286046999.1,N
1691134835.3,286046998.7,N
1691134855.1,286046998.4,N
1691134875.9,286046998.6,N
1691134895.7,286047000.7,N
1691134915.5,286047000.4,N
1691134935.4,286046998.9,N
1691134955.2,286046999.0,N
1691134975.0,286046999.1,N
1691134975.9,286046999.1,N
1691134995.8,286047001.0,N
1691135015.6,286046998.5,N
1691135035.4,286046999.4,N
1691135055.3,286047000.5,N
1691135075.1,286047000.4,N
1691135076.0,286047000.4,N
1691135095.8,286047001.1,N
1691135115.7,286047001.2,N
1691135135.5,286046998.5,N
1691135155.3,286046999.4,N
1691135175.2,286046998.7,N
1691135195.9,286046999.6,N
1691135215.7,286046999.2,N
1691135235.6,286047000.5,N
1691135255.4,286047001.0,N
1691135275.2,286047000.4,N
1691135295.1,286047002.8,N
1691135296.0,286047002.8,N
1691135315.8,286047000.6,N
1691135335.6,286046998.3,N
1691135355.5,286046996.6,N
1691135375.3,286046996.8,N
1691135395.1,286046999.6,N
1691135415.9,286046997.7,N
1691135435.7,286046996.6,N
1691135455.5,286046996.9,N
1691135475.4,286046998.8,N
1691135495.2,286047001.0,N
1691135515.0,286046999.0,N
1691135515.9,286046999.0,N
1691135535.8,286046998.4,N
1691135555.6,286046998.2,N
1691135575.4,286047000.8,N
1691135595.3,286047003.1,N
1691135615.1,286047000.5,N
1691135635.8,286046998.5,N
1691135655.7,286046999.5,N
1691135675.5,286046999.6,N
1691135695.3,286046999.6,N
1691135715.2,286046999.1,N
1691135735.9,286046999.6,N
1691135755.7,286046997.0,N
1691135775.6,286046996.7,N
1691135795.4,286046997.2,N
1691135815.2,286046996.5,N
1691135835.1,286046997.2,N
1691135836.0,286046997.2,N
1691135855.8,286046996.7,N
1691135875.6,286046999.6,N
1691135895.5,286046999.3,N
1691135915.3,286047000.6,N
1691135935.1,286046998.8,N
1691135955.9,286046996.7,N
1691135975.7,286046997.7,N
1691135995.5,286046999.5,N
